map of YBB home
YBB - Airport
Location
City:  Kugaaruk, Kitikmeot, Nunavut, Canada
Near (Alt.):Pelly Bay
Name:Kugaaruk Airport
ICAO:CYBB
IATA:YBB

Details
Type:Airport (Airfield)
Use:Public/Civil
Latitude:6832'09"N (68.535833)
Longitude:8948'19"W (-89.805277)
Elevation:51 ft (16 m)
Variation:15.66W (WMM2015v2 magnetic declination)
0.54 annual change
Runways:1
Longest:5000 ft (1524 m)

Time
Time Zone:UTC-6 (DST-5)
Local Time:

Weather
METAR:CYBB 041400Z 36003KT 15SM BKN016 M28/M31 A3009 RMK SF7 -27.5/-31.4/0.0/SNOW CVR/TRACE LOOSE SLP195
TAF:CYBB 031938Z 0320/0324 28010KT P6SM IC SCT120
RMK NXT FCST WILL BE ISSUED AT 041445Z

Related Locations
Nearby:
Farthest:YWKS: 11859 mi / 19085 km
Wilkins Runway (Casey), Upper Peterson Glacier, AQ

Find:

   beyond  
but within

Other Information
Maps:
NOTAMs:
Links:
Sources:

  
  • flag of Canada
  • flag of Nunavut
  

Airport Diagram

Airport diagram for YBB

Airport diagram PDF

Sectional Chart

Flight Planning
at skyvector.com

Satellite Image

Google Maps Satellite view

 

Copyright © 2004-2019 Karl L. Swartz. All rights reserved.
The Great Circle Mapper name and logo are trademarks of the Great Circle Mapper.
All other trademarks mentioned herein belong to their respective owners.
Please see credits for attibutions and further copyright information.

  Follow gcmap on Facebook Follow gcmap on Twitter GCmap on LinkedIn

hCard Microformat

Geo Microformat